Location: Krakow
(50.0212°N, 19.9423°E)
Time: 12:43:51
(UTC+02:00)

NOAA 18 - Pass Details

Date: 04 May 2025
Orbit: 837 x 857 km, 98.8° (Epoch: 14 May)

Event Time Altitude Azimuth Distance (km) Brightness Sun altitude
Exits shadow 21:33:51 15° 114° (ESE) 2,162 6.8 -12.5°
Maximum altitude 21:37:35 31° 61° (ENE) 1,478 6.3 -12.9°
Drops below altitude 10° 21:42:22 10° 1° (N) 2,502 8.3 -13.4°
Sets 21:44:59 0° 352° (N) 3,441 9.4 -13.7°
